sat.trackr.live / text

‹ back to catalog

2025-155H

NORAD 64883 · 2025-155H

PAYLOAD ACTIVE UNKNOWN

§ Identity

Operator
Country
TBD
Launch date
2025-07-25
Launch site
VOSTO
Launch vehicle
Mass (kg)
RCS (m²)

External: N2YO · Heavens-Above · Gunter

§ Orbital elements

Epoch: 2026-05-25T04:41:25.970208Z

Period
94.17 min
Inclination
97.4558°
Eccentricity
0.0005227
Mean motion
15.29119764 rev/d
Perigee alt
474.9 km
Apogee alt
482.0 km
Semi-major
6,856.6 km
B*
3.1007e-4
RAAN
113.6348°
Arg perigee
252.2880°
Mean anomaly
107.7790°
Rev number
7,724

§ Raw data

2025-155H1 64883U 25155H   26145.19543947  .00008693  00000+0  31007-3 0  99962 64883  97.4558 113.6348 0005227 252.2880 107.7790 15.29119764 77244

JSON: /api/v1/satellites/64883 · /tle

For live sub-satellite position, see the globe view (requires WebGL).

§ Visibility from observer

Set your observer location to see the next 7 days of passes ≥ 10°. The values pass through the URL so the page stays shareable.

No JS? Fill the form by hand. The geolocation button needs JavaScript.

§ Radio — SatNOGS DB

ModeDescriptionDownlinkUplink
LoRa LoRa telemetry 437.162 MHz

1 transmitter · refreshed weekly from db.satnogs.org